Showing default

SIMSAT 2, 26366

Orbit data source: Space-Track

SIMSAT 2, 26366 is a payload satellite owned by Eurockot (CIS) in LEO that was launched on Tue, 16 May 2000 UTC via an ROKOT launch vehicle from the Plesetsk Missile And Space Complex (PKMTR). Payload-class satellites include a variety of spacecraft equipped with specific instruments for various scientific and technological missions. These include communications satellites like Starlink; space stations such as the ISS; scientific satellites like the Hubble; Earth observation satellites from companies like Planet Labs, Umbra, and HawkEye 360; GPS; miniature CubeSats for education and research; and military/defense satellites.

Loading next visibility...
Identifier
26366, 2000-026B
Orbit
LEO
Country
Flag of CISCIS
Related business
Manufacturer
Khrunichev
Mission
Commercial Technology
Bus & Motor
SIMSAT, Unknown motor
Mass
660 kg wet, 660 kg dry
Launch date (UTC)
2000-05-16 (26 years ago)
Launch vehicle
ROKOT
Launch site
Plesetsk Missile And Space Complex (PKMTR)
Object type
Payload
Rocket body
Debris
Shape & HBR
Box + 1 Arm, 1.8 m
Radar Cross Section
9.625 m², Large (>1 m²)

Expand to show TLE details & history
Last TLE update: 8 hours ago

TLE from 8 hours ago
0 SIMSAT 2
1 26366U 00026B   26129.90479665  .00001716  00000-0  58818-4 0  9996
2 26366  86.3450 146.4139 0008380  62.3201 297.8897 15.29342080437369
Epoch: 2026-05-09T21:42Z
TLE epoch observation values (Epoch: 2026-05-09T21:42:54.430Z)
Latitude
0.00002°
Longitude
-47.02842°
Altitude
478.277 km
Speed
7.628 km/s
True Right ascension
09h 45m 39s
True Declination
0° 00' 00"
Sunlit
Object was in daylight at epoch
Visualization orbit readout
Latitude
Unknown
Longitude
Unknown
Altitude
Unknown
Speed
Unknown
Apparent Right ascension
Unknown
Apparent Declination
Unknown
Sunlit
N/A
Visualization observer readout
Local Sidereal Time
14:14:27
Azimuth
Unknown
Elevation
Unknown
Doppler factor
Unknown
Orbital elements
Apogee altitude
480.353 km
Perigee altitude
468.868 km
Semi-major axis
6,852.747 km
Eccentricity
0.00084
Inclination
86.345°
RAAN
146.4139°
Arg. of periapsis
62.3201°
True anomaly
297.80478°
Mean anomaly
297.8897°
Eccentric anomaly
297.84725°
Mean motion
3.82601 °/min
Orbital period
94.09 mins
BSTAR
0.000058818
Loading maneuver chart data...
Computing Atmospheric mass density...
Loading historical data...
Loading historical data...
Loading historical data...
Loading historical data...
Loading historical data...
Loading historical data...
Loading historical data...
Other satellites on launch #26 in the year 2000 (2000-05-16 UTC)

Documentation

Showing up to 5 results
|